EST,Max TemperatureF,Mean TemperatureF,Min TemperatureF,Max Dew PointF,MeanDew PointF,Min DewpointF,Max Humidity, Mean Humidity, Min Humidity, Max Sea Level PressureIn, Mean Sea Level PressureIn, Min Sea Level PressureIn, Max VisibilityMiles, Mean VisibilityMiles, Min VisibilityMiles, Max Wind SpeedMPH, Mean Wind SpeedMPH, Max Gust SpeedMPH,PrecipitationIn, CloudCover, Events, WindDirDegrees
2012-12-1,44,42,39,38,35,30,82,69,55,30.44,30.39,30.36,10,7,4,15,7,20,T,8,Rain,79
2012-12-2,48,45,41,,,,,,,,,,,,,14,5,23,0.04,,,-1
2012-12-3,51,48,44,50,49,46,100,95,89,30.23,30.20,30.17,4,1,0,5,0,6,T,8,Fog-Rain,107
2012-12-4,66,58,49,54,52,48,96,80,63,30.19,30.12,29.89,10,5,1,24,7,33,0.11,6,Rain,127
2012-12-5,54,43,31,49,32,16,89,65,40,30.33,30.15,29.99,10,10,10,22,10,30,0.03,6,Rain,292
2012-12-6,40,32,24,23,19,16,75,60,44,30.40,30.31,30.22,10,10,10,10,3,14,0.00,1,,37
2012-12-7,38,34,29,37,31,21,92,74,56,30.19,30.08,30.00,10,7,3,14,3,20,0.45,8,Rain,78
2012-12-8,46,42,38,45,40,37,100,93,86,30.06,29.93,29.86,6,4,0,8,3,13,0.25,8,Fog-Rain,84
2012-12-9,44,40,36,43,36,30,100,85,70,30.26,30.13,29.97,10,7,0,14,4,21,0.11,7,Fog-Rain,46
2012-12-10,50,46,41,48,44,37,93,90,86,29.92,29.66,29.54,10,6,2,16,7,22,0.27,8,Rain,64
2012-12-11,43,37,30,40,33,22,92,68,43,30.20,29.93,29.71,10,10,7,17,4,22,0.03,7,Rain,279
2012-12-12,42,34,26,28,25,19,92,66,39,30.47,30.37,30.20,10,10,7,12,2,15,0.00,3,,219
2012-12-13,42,32,21,25,22,18,96,68,39,30.51,30.43,30.33,10,9,7,9,1,13,0.00,0,,139
2012-12-14,48,34,20,30,23,18,100,71,42,30.32,30.27,30.19,10,8,0,12,1,16,0.00,1,Fog,264
2012-12-15,44,34,24,31,28,23,100,81,62,30.35,30.24,30.11,10,9,5,17,3,21,T,1,Rain,74
2012-12-16,48,43,38,43,38,32,86,78,70,30.09,29.95,29.84,10,10,7,18,11,26,0.01,8,Rain,69
2012-12-17,48,46,43,45,43,42,100,93,86,29.84,29.75,29.57,10,5,2,16,8,23,0.78,8,Rain,81
2012-12-18,47,42,37,45,39,27,100,82,64,29.76,29.57,29.49,10,7,1,24,8,31,0.05,8,Rain,297
2012-12-19,45,37,28,33,30,28,92,73,53,30.18,29.95,29.77,10,10,7,17,7,24,0.00,5,,285
2012-12-20,42,35,27,39,30,25,100,80,59,30.20,29.96,29.49,10,7,2,24,10,32,0.51,4,Rain-Snow,92
2012-12-21,46,40,34,43,32,25,96,80,64,29.44,29.31,29.26,10,8,2,26,12,37,1.22,8,Rain-Snow,271
2012-12-22,38,36,33,28,21,19,82,65,48,29.95,29.71,29.38,10,10,4,30,17,43,T,8,Snow,284
2012-12-23,40,32,23,23,21,17,88,64,40,30.00,29.94,29.87,10,10,10,16,6,23,0.00,3,,267
2012-12-24,37,30,22,30,25,19,100,76,52,30.08,29.98,29.89,10,6,1,12,5,20,0.09,5,Snow,71
2012-12-25,37,33,29,34,28,19,92,76,59,30.31,30.11,29.90,10,6,2,12,5,17,T,8,,321
2012-12-26,31,28,24,29,23,16,100,79,58,30.31,29.92,29.56,10,5,0,15,5,21,1.04,7,Fog-Rain-Snow,186
2012-12-27,32,30,28,29,24,19,100,82,63,29.98,29.72,29.54,10,8,1,24,13,31,0.16,8,Snow,283
2012-12-28,33,28,22,23,22,20,92,78,63,30.13,30.08,29.99,10,10,7,16,5,21,0.00,6,,307
2012-12-29,31,27,23,28,24,20,96,83,69,30.02,29.75,29.59,10,3,0,15,7,21,0.46,8,Fog-Snow,56
2012-12-30,33,30,27,21,18,15,75,63,51,30.26,30.07,29.79,10,10,9,26,12,37,T,7,,296
2012-12-31,37,29,20,28,20,16,84,68,51,30.24,30.07,29.91,10,10,7,17,5,24,0.00,4,,271